Location: Poznan
(52.4067°N, 16.9236°E)
Time: 20:41:48
(UTC+01:00)

ISS - Visible Passes

Search period start: 18 January 2018 00:00
Search period end: 28 January 2018 00:00
Orbit: 402 x 407 km, 51.6° (Epoch: 18 January)

Date Brightness Start Highest point End Pass type
(mag) Time Alt. Az. Time Alt. Az. Time Alt. Az.
26 Jan -1.2 18:55:39 10° SSW 18:56:18 14° SSW 18:56:18 14° SSW visible
27 Jan -1.7 18:04:12 10° S 18:06:05 15° SE 18:06:18 14° SE visible
27 Jan -0.6 19:38:50 10° SW 19:38:58 11° SW 19:38:58 11° SW visible
